Location: Unspecified
(0.0000°N, 0.0000°E)
Time: 01:57:02
(UTC+00:00)

S-56A Canister/Altair - Pass Details

Date: 05 October 2020
Orbit: 633 x 2499 km, 38.9° (Epoch: 25 October)

Event Time Altitude Azimuth Distance (km) Brightness Sun altitude
Rises 19:55:42 0° 319° (NW) 5,545 12.3 -31.7°
Reaches altitude 10° 19:59:55 10° 324° (NW) 4,275 11.6 -32.8°
Enters shadow 20:08:30 46° 2° (N) 1,904 9.3 -34.9°
